QPF
0.03 0.03 0.03 0.03 0.03 0.03 0.03 0.03 0.04 0.03 0.03 0.04 0.05 0.05 0.06 0.06 0.06 0.05 0.04 0.04 0.03 0.02 0.02 0.02 0.02 0.02 0.02 0.01 0.02 0.03 0.04 0.06 0.06 0.04 0.04 0.03 0.03 0.04
0.03 0.03 0.02 0.02 0.02 0.02 0.02 0.02 0.03 0.03 0.03 0.03 0.06 0.06 0.07 0.07 0.07 0.06 0.05 0.06 0.06 0.05 0.03 0.02 0.02 0.02 0.02 0.02 0.01 0.02 0.02 0.03 0.06 0.05 0.03 0.03 0.03 0.03
0.03 0.02 0.02 0.02 0.02 0.02 0.02 0.02 0.02 0.03 0.02 0.02 0.03 0.05 0.07 0.07 0.07 0.06 0.05 0.05 0.05 0.06 0.05 0.04 0.03 0.02 0.02 0.02 0.02 0.01 0.01 0.01 0.03 0.05 0.05 0.03 0.03 0.03
0.03 0.02 0.02 0.01 0.02 0.02 0.01 0.01 0.01 0.02 0.02 0.02 0.02 0.04 0.06 0.06 0.06 0.07 0.07 0.06 0.05 0.05 0.05 0.05 0.05 0.04 0.03 0.03 0.03 0.02 0.01 0.01 0.01 0.02 0.04 0.04 0.03 0.03
0.02 0.03 0.02 0.02 0.02 0.01 0.01 0.01 0.01 0.01 0.01 0.01 0.01 0.03 0.04 0.06 0.07 0.07 0.06 0.06 0.05 0.05 0.05 0.06 0.05 0.05 0.05 0.04 0.03 0.03 0.01 0.01 0.01 0.01 0.02 0.04 0.03 0.03
0.02 0.02 0.02 0.02 0.02 0.02 0.01 0.01 0.01 0.02 0.02 0.02 0.02 0.02 0.03 0.05 0.07 0.08 0.07 0.05 0.04 0.05 0.06 0.05 0.05 0.05 0.04 0.04 0.03 0.03 0.02 0.02 0.02 0.02 0.02 0.02 0.02 0.02
0.04 0.03 0.02 0.02 0.02 0.02 0.02 0.02 0.02 0.02 0.02 0.02 0.02 0.02 0.02 0.04 0.06 0.07 0.08 0.07 0.04 0.03 0.04 0.05 0.04 0.04 0.04 0.04 0.04 0.03 0.03 0.02 0.02 0.02 0.02 0.02 0.02 0.02
0.04 0.03 0.03 0.03 0.02 0.02 0.02 0.02 0.02 0.02 0.03 0.03 0.02 0.02 0.02 0.02 0.04 0.07 0.07 0.07 0.06 0.04 0.04 0.04 0.04 0.04 0.04 0.03 0.04 0.04 0.04 0.03 0.02 0.02 0.01 0.01 0.01 0.02
0.06 0.05 0.04 0.03 0.03 0.03 0.03 0.03 0.03 0.03 0.03 0.02 0.02 0.02 0.01 0.01 0.02 0.05 0.07 0.07 0.07 0.06 0.05 0.05 0.04 0.04 0.03 0.03 0.03 0.03 0.03 0.03 0.02 0.02 0.02 0.02 0.01 0.01
0.09 0.09 0.08 0.06 0.05 0.04 0.03 0.03 0.03 0.02 0.02 0.02 0.02 0.01 0.01 0.01 0.02 0.03 0.06 0.08 0.07 0.06 0.06 0.07 0.06 0.04 0.04 0.03 0.03 0.04 0.03 0.03 0.02 0.02 0.03 0.03 0.03 0.03
0.07 0.07 0.08 0.08 0.08 0.08 0.06 0.05 0.04 0.04 0.03 0.03 0.03 0.03 0.02 0.02 0.02 0.04 0.06 0.06 0.08 0.07 0.05 0.05 0.05 0.06 0.06 0.06 0.05 0.05 0.04 0.04 0.03 0.03 0.02 0.02 0.03 0.03
0.05 0.06 0.07 0.07 0.07 0.08 0.08 0.08 0.07 0.05 0.04 0.04 0.05 0.05 0.04 0.03 0.03 0.03 0.04 0.06 0.05 0.06 0.06 0.04 0.03 0.04 0.07 0.08 0.07 0.06 0.05 0.06 0.06 0.05 0.04 0.04 0.04 0.04
0.04 0.04 0.05 0.06 0.07 0.08 0.08 0.08 0.07 0.06 0.06 0.06 0.07 0.06 0.06 0.05 0.04 0.04 0.03 0.05 0.06 0.05 0.06 0.07 0.05 0.04 0.04 0.05 0.06 0.06 0.06 0.07 0.08 0.07 0.06 0.04 0.04 0.05
0.05 0.05 0.05 0.05 0.06 0.08 0.09 0.08 0.08 0.07 0.07 0.07 0.07 0.07 0.06 0.05 0.04 0.03 0.03 0.04 0.05 0.05 0.05 0.07 0.07 0.05 0.03 0.03 0.04 0.04 0.04 0.05 0.07 0.06 0.06 0.05 0.05 0.05
0.04 0.04 0.05 0.05 0.06 0.06 0.07 0.07 0.07 0.07 0.07 0.07 0.06 0.05 0.04 0.03 0.03 0.03 0.04 0.04 0.04 0.05 0.05 0.06 0.05 0.05 0.04 0.03 0.03 0.03 0.03 0.04 0.04 0.05 0.04 0.04 0.04 0.04
0.04 0.04 0.05 0.05 0.05 0.05 0.06 0.06 0.06 0.06 0.06 0.06 0.05 0.04 0.04 0.04 0.04 0.04 0.04 0.05 0.05 0.05 0.05 0.05 0.04 0.04 0.04 0.03 0.03 0.03 0.02 0.03 0.03 0.03 0.04 0.04 0.04 0.03
0.05 0.04 0.05 0.05 0.05 0.05 0.05 0.06 0.06 0.07 0.07 0.07 0.06 0.06 0.05 0.05 0.05 0.05 0.05 0.05 0.05 0.04 0.04 0.04 0.04 0.04 0.04 0.03 0.03 0.02 0.02 0.02 0.02 0.02 0.03 0.04 0.05 0.05
0.07 0.06 0.05 0.04 0.05 0.05 0.05 0.05 0.05 0.06 0.06 0.06 0.06 0.05 0.05 0.05 0.05 0.05 0.05 0.05 0.04 0.03 0.03 0.04 0.05 0.07 0.07 0.05 0.03 0.02 0.02 0.02 0.02 0.02 0.03 0.04 0.04 0.04
0.09 0.07 0.06 0.05 0.05 0.05 0.05 0.05 0.05 0.05 0.04 0.05 0.05 0.04 0.04 0.04 0.04 0.04 0.04 0.04 0.04 0.03 0.03 0.04 0.05 0.07 0.08 0.05 0.03 0.02 0.02 0.02 0.02 0.03 0.03 0.03 0.04 0.04
0.08 0.07 0.06 0.05 0.04 0.04 0.04 0.04 0.04 0.04 0.04 0.04 0.04 0.03 0.03 0.04 0.04 0.04 0.03 0.03 0.03 0.03 0.04 0.04 0.04 0.05 0.05 0.04 0.04 0.03 0.02 0.03 0.03 0.04 0.04 0.03 0.03 0.04
0.06 0.05 0.05 0.04 0.04 0.03 0.03 0.03 0.03 0.03 0.03 0.03 0.03 0.03 0.03 0.03 0.03 0.03 0.03 0.03 0.03 0.04 0.04 0.03 0.03 0.03 0.04 0.05 0.05 0.04 0.03 0.03 0.03 0.04 0.04 0.05 0.05 0.05
0.05 0.05 0.04 0.03 0.03 0.03 0.03 0.02 0.02 0.02 0.03 0.03 0.02 0.02 0.02 0.03 0.03 0.03 0.03 0.03 0.03 0.03 0.03 0.03 0.03 0.05 0.06 0.06 0.04 0.03 0.03 0.04 0.04 0.04 0.05 0.05 0.06 0.06
0.04 0.04 0.04 0.03 0.02 0.02 0.02 0.02 0.02 0.02 0.02 0.02 0.02 0.02 0.02 0.03 0.03 0.03 0.03 0.03 0.03 0.03 0.03 0.04 0.05 0.05 0.05 0.05 0.04 0.04 0.03 0.04 0.04 0.05 0.06 0.06 0.05 0.05
MSLP
1020.05 1021.12 1022.26 1023.46 1024.70 1025.96 1027.19 1028.36 1029.43 1030.37 1031.16 1031.79 1032.28 1032.64 1032.90 1033.09 1033.24 1033.38 1033.52 1033.69 1033.90 1034.13 1034.39 1034.66 1034.93 1035.20 1035.45 1035.67 1035.87 1036.05 1036.21 1036.36 1036.49 1036.62 1036.75 1036.87 1036.99 1037.11
1019.87 1020.93 1022.04 1023.21 1024.41 1025.63 1026.83 1027.98 1029.05 1030.01 1030.84 1031.54 1032.10 1032.54 1032.88 1033.14 1033.36 1033.55 1033.74 1033.93 1034.15 1034.38 1034.63 1034.88 1035.13 1035.37 1035.60 1035.80 1035.99 1036.15 1036.31 1036.45 1036.58 1036.71 1036.83 1036.96 1037.07 1037.18
1019.63 1020.67 1021.75 1022.88 1024.05 1025.24 1026.42 1027.56 1028.64 1029.62 1030.49 1031.23 1031.85 1032.35 1032.76 1033.09 1033.36 1033.61 1033.83 1034.06 1034.29 1034.53 1034.78 1035.02 1035.25 1035.47 1035.67 1035.86 1036.03 1036.18 1036.32 1036.46 1036.59 1036.71 1036.84 1036.95 1037.06 1037.16
1019.25 1020.27 1021.33 1022.42 1023.57 1024.74 1025.91 1027.05 1028.14 1029.14 1030.04 1030.82 1031.49 1032.04 1032.51 1032.89 1033.22 1033.51 1033.79 1034.05 1034.31 1034.56 1034.82 1035.05 1035.28 1035.48 1035.66 1035.82 1035.97 1036.10 1036.23 1036.36 1036.48 1036.61 1036.73 1036.85 1036.95 1037.03
1018.71 1019.71 1020.74 1021.81 1022.93 1024.09 1025.25 1026.39 1027.49 1028.51 1029.43 1030.25 1030.96 1031.56 1032.07 1032.51 1032.89 1033.24 1033.56 1033.87 1034.17 1034.45 1034.72 1034.96 1035.18 1035.37 1035.53 1035.66 1035.78 1035.89 1036.00 1036.12 1036.24 1036.36 1036.49 1036.60 1036.70 1036.78
1018.02 1018.99 1020.00 1021.05 1022.15 1023.28 1024.43 1025.57 1026.67 1027.70 1028.65 1029.49 1030.23 1030.87 1031.43 1031.91 1032.35 1032.76 1033.15 1033.51 1033.86 1034.18 1034.48 1034.74 1034.95 1035.12 1035.26 1035.36 1035.45 1035.53 1035.61 1035.71 1035.82 1035.95 1036.07 1036.20 1036.30 1036.38
1017.24 1018.18 1019.16 1020.18 1021.25 1022.36 1023.49 1024.62 1025.70 1026.73 1027.68 1028.53 1029.29 1029.97 1030.57 1031.12 1031.62 1032.10 1032.55 1032.98 1033.39 1033.77 1034.10 1034.37 1034.58 1034.74 1034.84 1034.91 1034.95 1034.99 1035.05 1035.12 1035.22 1035.34 1035.47 1035.61 1035.73 1035.82
1016.43 1017.35 1018.30 1019.29 1020.33 1021.40 1022.49 1023.58 1024.63 1025.63 1026.57 1027.43 1028.20 1028.91 1029.55 1030.15 1030.72 1031.27 1031.80 1032.31 1032.79 1033.21 1033.58 1033.87 1034.08 1034.22 1034.29 1034.31 1034.31 1034.30 1034.31 1034.36 1034.44 1034.55 1034.70 1034.85 1034.99 1035.10
1015.65 1016.57 1017.50 1018.45 1019.45 1020.47 1021.50 1022.53 1023.54 1024.50 1025.40 1026.24 1027.02 1027.74 1028.43 1029.08 1029.72 1030.34 1030.95 1031.53 1032.07 1032.55 1032.94 1033.25 1033.46 1033.58 1033.61 1033.58 1033.53 1033.48 1033.44 1033.46 1033.52 1033.63 1033.77 1033.94 1034.10 1034.24
1014.95 1015.87 1016.78 1017.72 1018.67 1019.63 1020.60 1021.57 1022.51 1023.41 1024.27 1025.08 1025.85 1026.58 1027.29 1027.98 1028.68 1029.36 1030.03 1030.67 1031.27 1031.79 1032.21 1032.53 1032.73 1032.83 1032.83 1032.77 1032.67 1032.57 1032.50 1032.48 1032.52 1032.62 1032.77 1032.94 1033.12 1033.28
1014.31 1015.25 1016.17 1017.09 1018.01 1018.92 1019.83 1020.72 1021.59 1022.43 1023.24 1024.01 1024.76 1025.48 1026.20 1026.92 1027.65 1028.38 1029.09 1029.77 1030.40 1030.95 1031.39 1031.72 1031.92 1032.01 1031.99 1031.90 1031.77 1031.64 1031.54 1031.49 1031.51 1031.60 1031.74 1031.92 1032.11 1032.28
1013.70 1014.67 1015.61 1016.53 1017.43 1018.31 1019.17 1020.01 1020.82 1021.60 1022.35 1023.08 1023.79 1024.51 1025.22 1025.94 1026.67 1027.41 1028.14 1028.84 1029.48 1030.04 1030.50 1030.83 1031.04 1031.12 1031.10 1031.01 1030.87 1030.73 1030.61 1030.55 1030.55 1030.62 1030.75 1030.92 1031.10 1031.26
1013.06 1014.06 1015.02 1015.96 1016.86 1017.73 1018.56 1019.37 1020.14 1020.87 1021.59 1022.28 1022.96 1023.64 1024.33 1025.03 1025.75 1026.47 1027.18 1027.87 1028.50 1029.06 1029.52 1029.86 1030.07 1030.18 1030.18 1030.10 1029.98 1029.84 1029.73 1029.67 1029.66 1029.71 1029.82 1029.96 1030.11 1030.25
1012.31 1013.34 1014.34 1015.30 1016.22 1017.09 1017.93 1018.72 1019.47 1020.19 1020.88 1021.55 1022.21 1022.86 1023.51 1024.17 1024.85 1025.53 1026.20 1026.85 1027.45 1027.99 1028.44 1028.79 1029.03 1029.16 1029.19 1029.16 1029.07 1028.97 1028.88 1028.82 1028.81 1028.84 1028.91 1029.02 1029.12 1029.22
1011.45 1012.48 1013.49 1014.47 1015.41 1016.31 1017.17 1017.98 1018.74 1019.47 1020.16 1020.82 1021.45 1022.07 1022.69 1023.30 1023.92 1024.54 1025.15 1025.75 1026.31 1026.81 1027.25 1027.60 1027.87 1028.04 1028.13 1028.15 1028.12 1028.06 1028.01 1027.96 1027.94 1027.95 1027.98 1028.03 1028.09 1028.13
1010.48 1011.48 1012.47 1013.46 1014.41 1015.34 1016.22 1017.06 1017.85 1018.60 1019.31 1019.98 1020.61 1021.22 1021.80 1022.37 1022.93 1023.48 1024.03 1024.56 1025.06 1025.53 1025.95 1026.31 1026.59 1026.81 1026.95 1027.03 1027.06 1027.05 1027.03 1027.00 1026.97 1026.96 1026.95 1026.95 1026.94 1026.92
1009.46 1010.38 1011.33 1012.28 1013.23 1014.16 1015.06 1015.93 1016.76 1017.55 1018.28 1018.97 1019.61 1020.21 1020.77 1021.30 1021.81 1022.31 1022.79 1023.26 1023.71 1024.14 1024.54 1024.89 1025.20 1025.45 1025.63 1025.76 1025.84 1025.88 1025.88 1025.86 1025.83 1025.79 1025.75 1025.69 1025.63 1025.55
1008.51 1009.31 1010.16 1011.04 1011.94 1012.84 1013.74 1014.62 1015.47 1016.28 1017.04 1017.76 1018.42 1019.02 1019.57 1020.08 1020.56 1021.01 1021.44 1021.86 1022.27 1022.66 1023.04 1023.38 1023.69 1023.96 1024.17 1024.34 1024.45 1024.51 1024.53 1024.52 1024.47 1024.41 1024.34 1024.24 1024.14 1024.03
1007.76 1008.39 1009.10 1009.86 1010.66 1011.49 1012.34 1013.19 1014.03 1014.84 1015.62 1016.35 1017.02 1017.64 1018.20 1018.70 1019.17 1019.60 1020.00 1020.39 1020.76 1021.13 1021.48 1021.80 1022.10 1022.37 1022.59 1022.76 1022.88 1022.95 1022.97 1022.96 1022.91 1022.83 1022.74 1022.63 1022.51 1022.39
1007.30 1007.74 1008.27 1008.86 1009.52 1010.23 1010.98 1011.76 1012.54 1013.32 1014.08 1014.80 1015.48 1016.10 1016.67 1017.18 1017.65 1018.08 1018.47 1018.85 1019.20 1019.55 1019.87 1020.18 1020.46 1020.71 1020.91 1021.07 1021.18 1021.24 1021.25 1021.23 1021.18 1021.10 1021.01 1020.91 1020.81 1020.72
1007.23 1007.46 1007.78 1008.17 1008.64 1009.18 1009.78 1010.43 1011.11 1011.80 1012.51 1013.19 1013.85 1014.47 1015.04 1015.56 1016.04 1016.47 1016.88 1017.25 1017.61 1017.94 1018.25 1018.53 1018.79 1019.00 1019.18 1019.31 1019.40 1019.44 1019.44 1019.41 1019.37 1019.31 1019.24 1019.18 1019.13 1019.09
1007.56 1007.57 1007.66 1007.84 1008.09 1008.42 1008.83 1009.30 1009.83 1010.40 1010.99 1011.60 1012.21 1012.79 1013.35 1013.87 1014.35 1014.81 1015.22 1015.61 1015.96 1016.29 1016.59 1016.86 1017.09 1017.28 1017.42 1017.52 1017.58 1017.61 1017.61 1017.59 1017.56 1017.54 1017.53 1017.54 1017.56 1017.60
1008.24 1008.05 1007.93 1007.87 1007.89 1007.99 1008.18 1008.44 1008.77 1009.17 1009.62 1010.11 1010.62 1011.15 1011.66 1012.16 1012.64 1013.09 1013.51 1013.91 1014.27 1014.61 1014.90 1015.15 1015.37 1015.53 1015.66 1015.74 1015.78 1015.81 1015.81 1015.82 1015.84 1015.88 1015.94 1016.04 1016.16 1016.30
Thickness
5485 5485 5486 5486 5487 5488 5488 5489 5489 5491 5496 5500 5502 5505 5506 5507 5509 5510 5512 5513 5515 5516 5517 5517 5518 5518 5518 5517 5517 5517 5516 5515 5514 5513 5512 5511 5511 5510
5474 5474 5475 5475 5476 5476 5477 5478 5479 5480 5484 5490 5490 5492 5493 5495 5496 5499 5501 5502 5503 5505 5506 5506 5507 5508 5508 5507 5507 5506 5506 5505 5503 5503 5502 5501 5500 5499
5463 5464 5464 5464 5465 5465 5465 5466 5467 5468 5471 5476 5476 5478 5480 5482 5484 5486 5489 5490 5492 5493 5494 5495 5496 5497 5497 5497 5497 5496 5495 5494 5493 5493 5492 5491 5490 5489
5452 5452 5452 5453 5453 5453 5453 5454 5455 5456 5458 5461 5463 5464 5466 5468 5471 5473 5475 5478 5480 5481 5482 5483 5484 5485 5485 5486 5486 5485 5485 5484 5483 5482 5482 5481 5480 5478
5442 5441 5442 5441 5441 5441 5441 5442 5443 5444 5446 5448 5450 5451 5452 5454 5456 5459 5461 5464 5466 5468 5470 5471 5472 5473 5474 5474 5474 5474 5474 5473 5472 5471 5470 5469 5468 5467
5431 5431 5431 5431 5431 5430 5430 5431 5431 5431 5433 5435 5437 5437 5438 5439 5441 5443 5447 5450 5453 5455 5456 5458 5459 5460 5461 5462 5463 5462 5462 5461 5460 5460 5458 5457 5457 5456
5420 5420 5420 5420 5420 5420 5420 5420 5419 5419 5421 5423 5424 5424 5425 5425 5427 5429 5432 5435 5438 5440 5442 5444 5446 5448 5448 5449 5449 5450 5450 5449 5449 5448 5447 5446 5445 5444
5408 5408 5408 5407 5408 5408 5409 5409 5409 5408 5409 5410 5412 5413 5414 5413 5414 5414 5416 5417 5423 5427 5427 5431 5432 5434 5436 5437 5438 5438 5438 5437 5437 5436 5435 5435 5433 5433
5396 5396 5396 5396 5396 5395 5396 5396 5396 5397 5398 5399 5400 5401 5402 5401 5400 5400 5400 5403 5408 5411 5411 5417 5418 5421 5423 5424 5425 5426 5426 5426 5425 5424 5424 5423 5422 5422
5383 5383 5383 5384 5383 5383 5383 5383 5383 5384 5386 5387 5389 5389 5388 5387 5387 5388 5388 5389 5392 5394 5396 5401 5405 5407 5410 5411 5412 5413 5413 5413 5413 5413 5413 5412 5411 5411
5370 5370 5370 5370 5371 5370 5370 5371 5371 5372 5372 5373 5374 5374 5374 5374 5373 5372 5372 5373 5378 5382 5382 5385 5390 5392 5396 5399 5400 5399 5399 5399 5400 5400 5400 5400 5399 5398
5356 5357 5357 5358 5359 5358 5357 5358 5359 5360 5359 5358 5358 5359 5359 5359 5359 5359 5360 5361 5363 5367 5369 5370 5373 5374 5379 5385 5386 5385 5386 5387 5386 5387 5387 5387 5386 5385
5342 5343 5344 5345 5346 5346 5346 5346 5347 5347 5345 5344 5344 5344 5344 5345 5346 5346 5347 5348 5349 5352 5354 5354 5358 5359 5361 5367 5371 5372 5372 5373 5374 5374 5374 5374 5374 5373
5328 5329 5330 5331 5331 5332 5332 5333 5333 5332 5330 5330 5330 5330 5330 5331 5332 5332 5333 5334 5336 5338 5340 5339 5341 5344 5346 5350 5355 5358 5359 5359 5360 5361 5360 5361 5360 5360
5314 5315 5315 5316 5316 5316 5317 5317 5317 5316 5316 5316 5317 5317 5317 5316 5316 5317 5318 5319 5321 5323 5325 5326 5327 5330 5332 5335 5340 5343 5344 5345 5346 5346 5346 5347 5347 5347
5298 5299 5299 5300 5300 5301 5301 5300 5300 5300 5301 5302 5303 5302 5301 5301 5301 5302 5303 5304 5306 5309 5311 5312 5313 5315 5318 5322 5324 5327 5328 5329 5332 5331 5332 5333 5333 5334
5283 5283 5283 5282 5283 5283 5283 5284 5284 5284 5284 5285 5284 5285 5286 5286 5287 5287 5288 5288 5290 5294 5297 5298 5299 5302 5304 5307 5310 5313 5315 5316 5316 5317 5317 5319 5320 5320
5269 5268 5267 5266 5266 5266 5267 5268 5268 5269 5269 5269 5269 5269 5271 5272 5273 5273 5273 5275 5277 5280 5283 5285 5286 5288 5290 5294 5298 5300 5301 5302 5302 5302 5303 5304 5308 5309
5253 5252 5251 5250 5250 5249 5250 5251 5252 5253 5254 5254 5255 5255 5255 5256 5258 5259 5260 5261 5263 5266 5269 5271 5272 5273 5275 5281 5286 5287 5288 5289 5289 5289 5290 5291 5295 5298
5236 5235 5235 5234 5234 5233 5234 5235 5236 5237 5239 5240 5240 5241 5241 5242 5243 5245 5247 5249 5250 5252 5255 5257 5260 5262 5263 5268 5271 5273 5275 5275 5276 5278 5278 5279 5281 5284
5219 5219 5219 5219 5218 5219 5219 5220 5221 5222 5223 5224 5226 5226 5227 5228 5230 5231 5233 5236 5238 5239 5243 5246 5249 5251 5251 5252 5255 5260 5262 5263 5265 5266 5267 5266 5268 5270
5204 5204 5205 5204 5204 5205 5205 5206 5206 5207 5208 5209 5211 5212 5214 5215 5217 5218 5220 5222 5225 5228 5231 5234 5236 5237 5239 5242 5245 5248 5249 5251 5252 5253 5254 5256 5256 5259
5190 5190 5191 5192 5191 5191 5192 5192 5192 5193 5194 5195 5196 5198 5200 5201 5203 5205 5207 5209 5212 5215 5218 5220 5223 5225 5228 5230 5231 5234 5235 5237 5239 5240 5242 5244 5246 5248